Location: Unspecified
(0.0000°N, 0.0000°E)
Time: 20:07:08
(UTC+00:00)

deb Delta 126 - Pass Details

Date: 20 February 2026
Orbit: 1501 x 2092 km, 101.9° (Epoch: 11 March)

Event Time Altitude Azimuth Distance (km) Brightness Sun altitude
Rises 01:57:02 0° 59° (ENE) 4,821 ? -62.1°
Reaches altitude 10° 02:01:53 10° 82° (E) 3,942 ? -61.0°
Maximum altitude 02:06:15 14° 111° (ESE) 3,714 ? -60.0°
Drops below altitude 10° 02:10:47 10° 139° (SE) 4,155 ? -58.9°
Sets 02:16:04 0° 161° (SSE) 5,274 ? -57.7°
